Time,TemperatureF,DewpointF,PressureIn,WindDirection,WindDirectionDegrees,WindSpeedMPH,WindSpeedGustMPH,Humidity,HourlyPrecipIn,Conditions,Clouds,dailyrainin,SoftwareType,DateUTC
2013-11-28 00:00:00,33.9,28.1,30.37,NNE,15,0.0,5.0,79,0.00,,,0.00,Wunderground v.1.15,2013-11-28 06:00:00,
2013-11-28 00:10:00,33.8,28.3,30.37,NNE,15,0.0,5.0,80,0.00,,,0.00,Wunderground v.1.15,2013-11-28 06:10:00,
2013-11-28 00:20:00,33.7,28.5,30.37,NNE,15,0.0,5.0,81,0.00,,,0.00,Wunderground v.1.15,2013-11-28 06:20:00,
2013-11-28 00:30:00,33.4,28.2,30.37,NNE,15,0.0,5.0,81,0.00,,,0.00,Wunderground v.1.15,2013-11-28 06:30:00,
2013-11-28 00:40:00,33.1,28.2,30.37,NNE,15,0.0,5.0,82,0.00,,,0.00,Wunderground v.1.15,2013-11-28 06:40:00,
2013-11-28 00:50:00,32.9,28.3,30.36,NNE,15,0.0,5.0,83,0.00,,,0.00,Wunderground v.1.15,2013-11-28 06:50:00,
2013-11-28 01:00:00,32.8,27.9,30.36,NNE,15,0.0,5.0,82,0.00,,,0.00,Wunderground v.1.15,2013-11-28 07:00:00,
2013-11-28 01:10:00,32.6,27.7,30.36,NNE,15,0.0,5.0,82,0.00,,,0.00,Wunderground v.1.15,2013-11-28 07:10:00,
2013-11-28 01:20:00,32.5,27.6,30.36,NNE,15,0.0,5.0,82,0.00,,,0.00,Wunderground v.1.15,2013-11-28 07:20:00,
2013-11-28 01:30:00,32.3,27.7,30.36,NNE,15,0.0,5.0,83,0.00,,,0.00,Wunderground v.1.15,2013-11-28 07:30:00,
2013-11-28 01:40:00,32.1,27.8,30.36,NNE,15,0.0,5.0,84,0.00,,,0.00,Wunderground v.1.15,2013-11-28 07:40:00,
2013-11-28 01:50:00,32.0,27.7,30.36,NNE,15,0.0,5.0,84,0.00,,,0.00,Wunderground v.1.15,2013-11-28 07:50:00,
2013-11-28 02:00:00,32.0,28.0,30.36,NNE,15,0.0,5.0,85,0.00,,,0.00,Wunderground v.1.15,2013-11-28 08:00:00,
2013-11-28 02:10:00,31.9,28.2,30.36,NNE,15,0.0,5.0,86,0.00,,,0.00,Wunderground v.1.15,2013-11-28 08:10:00,
2013-11-28 02:20:00,31.7,28.0,30.36,NNE,15,0.0,5.0,86,0.00,,,0.00,Wunderground v.1.15,2013-11-28 08:20:00,
2013-11-28 02:30:00,31.7,28.0,30.35,NNE,15,0.0,5.0,86,0.00,,,0.00,Wunderground v.1.15,2013-11-28 08:30:00,
2013-11-28 02:40:00,31.5,27.8,30.36,NNE,15,0.0,5.0,86,0.00,,,0.00,Wunderground v.1.15,2013-11-28 08:40:00,
2013-11-28 02:50:00,31.3,27.6,30.36,NNE,15,0.0,5.0,86,0.00,,,0.00,Wunderground v.1.15,2013-11-28 08:50:00,
2013-11-28 03:00:00,31.2,27.5,30.36,NNE,15,0.0,5.0,86,0.00,,,0.00,Wunderground v.1.15,2013-11-28 09:00:00,
2013-11-28 03:10:00,31.0,27.6,30.36,NNE,15,0.0,5.0,87,0.00,,,0.00,Wunderground v.1.15,2013-11-28 09:10:00,
2013-11-28 03:20:00,30.8,27.1,30.36,NNE,15,0.0,5.0,86,0.00,,,0.00,Wunderground v.1.15,2013-11-28 09:20:00,
2013-11-28 03:30:00,30.6,27.2,30.36,NNE,15,0.0,5.0,87,0.00,,,0.00,Wunderground v.1.15,2013-11-28 09:30:00,
2013-11-28 03:40:00,30.4,26.7,30.36,NNE,15,0.0,5.0,86,0.00,,,0.00,Wunderground v.1.15,2013-11-28 09:40:00,
2013-11-28 03:50:00,30.5,26.5,30.35,NNE,15,0.0,5.0,85,0.00,,,0.00,Wunderground v.1.15,2013-11-28 09:50:00,
2013-11-28 04:00:00,30.3,26.3,30.35,NNE,15,0.0,5.0,85,0.00,,,0.00,Wunderground v.1.15,2013-11-28 10:00:00,
2013-11-28 04:10:00,30.3,26.3,30.35,NNE,15,0.0,5.0,85,0.00,,,0.00,Wunderground v.1.15,2013-11-28 10:10:00,
2013-11-28 04:20:00,30.2,26.2,30.34,NNE,15,0.0,5.0,85,0.00,,,0.00,Wunderground v.1.15,2013-11-28 10:20:00,
2013-11-28 04:30:00,30.3,26.3,30.35,NNE,15,0.0,5.0,85,0.00,,,0.00,Wunderground v.1.15,2013-11-28 10:30:00,
2013-11-28 04:40:00,30.6,26.3,30.35,NNE,15,0.0,5.0,84,0.00,,,0.00,Wunderground v.1.15,2013-11-28 10:40:00,
2013-11-28 04:50:00,31.0,26.7,30.35,NNE,15,0.0,5.0,84,0.00,,,0.00,Wunderground v.1.15,2013-11-28 10:50:00,
2013-11-28 05:00:00,31.2,26.6,30.35,NNE,15,0.0,5.0,83,0.00,,,0.00,Wunderground v.1.15,2013-11-28 11:00:00,
2013-11-28 05:10:00,31.2,26.6,30.36,NNE,15,0.0,5.0,83,0.00,,,0.00,Wunderground v.1.15,2013-11-28 11:10:00,
2013-11-28 05:20:00,31.3,26.7,30.36,NNE,15,0.0,5.0,83,0.00,,,0.00,Wunderground v.1.15,2013-11-28 11:20:00,
2013-11-28 05:30:00,31.3,26.7,30.37,NNE,15,0.0,5.0,83,0.00,,,0.00,Wunderground v.1.15,2013-11-28 11:30:00,
2013-11-28 05:40:00,31.3,27.0,30.37,NNE,15,0.0,5.0,84,0.00,,,0.00,Wunderground v.1.15,2013-11-28 11:40:00,
2013-11-28 05:50:00,31.3,27.0,30.36,NNE,15,0.0,5.0,84,0.00,,,0.00,Wunderground v.1.15,2013-11-28 11:50:00,
2013-11-28 06:00:00,31.4,27.4,30.37,NNE,15,0.0,5.0,85,0.00,,,0.00,Wunderground v.1.15,2013-11-28 12:00:00,
2013-11-28 06:10:00,31.3,27.0,30.37,NNE,15,0.0,5.0,84,0.00,,,0.00,Wunderground v.1.15,2013-11-28 12:10:00,
2013-11-28 06:20:00,31.3,27.0,30.38,NNE,15,0.0,5.0,84,0.00,,,0.00,Wunderground v.1.15,2013-11-28 12:20:00,
2013-11-28 06:30:00,31.0,27.0,30.38,NNE,15,0.0,5.0,85,0.00,,,0.00,Wunderground v.1.15,2013-11-28 12:30:00,
2013-11-28 06:40:00,30.7,26.7,30.38,NNE,15,0.0,5.0,85,0.00,,,0.00,Wunderground v.1.15,2013-11-28 12:40:00,
2013-11-28 06:50:00,30.6,26.6,30.39,NNE,15,0.0,5.0,85,0.00,,,0.00,Wunderground v.1.15,2013-11-28 12:50:00,
2013-11-28 07:00:00,30.5,26.8,30.39,NNE,15,0.0,5.0,86,0.00,,,0.00,Wunderground v.1.15,2013-11-28 13:00:00,
2013-11-28 07:10:00,30.4,26.7,30.39,NNE,15,0.0,5.0,86,0.00,,,0.00,Wunderground v.1.15,2013-11-28 13:10:00,
2013-11-28 07:20:00,30.4,26.7,30.39,NNE,15,0.0,5.0,86,0.00,,,0.00,Wunderground v.1.15,2013-11-28 13:20:00,
2013-11-28 07:30:00,30.4,26.7,30.39,NNE,15,0.0,5.0,86,0.00,,,0.00,Wunderground v.1.15,2013-11-28 13:30:00,
2013-11-28 07:40:00,30.5,26.8,30.40,NNE,15,0.0,5.0,86,0.00,,,0.00,Wunderground v.1.15,2013-11-28 13:40:00,
2013-11-28 07:50:00,30.6,26.6,30.40,NNE,15,0.0,5.0,85,0.00,,,0.00,Wunderground v.1.15,2013-11-28 13:50:00,
2013-11-28 08:00:00,30.9,26.9,30.39,NNE,15,0.0,5.0,85,0.00,,,0.00,Wunderground v.1.15,2013-11-28 14:00:00,
2013-11-28 08:10:00,31.2,27.2,30.40,NNE,15,0.0,5.0,85,0.00,,,0.00,Wunderground v.1.15,2013-11-28 14:10:00,
2013-11-28 08:20:00,31.5,27.5,30.40,NNE,15,0.0,5.0,85,0.00,,,0.00,Wunderground v.1.15,2013-11-28 14:20:00,
2013-11-28 08:30:00,31.8,27.8,30.40,NNE,15,0.0,5.0,85,0.00,,,0.00,Wunderground v.1.15,2013-11-28 14:30:00,
2013-11-28 08:40:00,32.3,28.3,30.41,NNE,15,0.0,5.0,85,0.00,,,0.00,Wunderground v.1.15,2013-11-28 14:40:00,
2013-11-28 08:50:00,33.0,28.7,30.41,NNE,15,0.0,5.0,84,0.00,,,0.00,Wunderground v.1.15,2013-11-28 14:50:00,
2013-11-28 09:00:00,34.1,29.2,30.41,NNE,15,0.0,5.0,82,0.00,,,0.00,Wunderground v.1.15,2013-11-28 15:00:00,
2013-11-28 09:10:00,35.1,29.6,30.42,NNE,15,1.0,5.0,80,0.00,,,0.00,Wunderground v.1.15,2013-11-28 15:10:00,
2013-11-28 09:20:00,36.2,29.7,30.43,NNE,15,1.0,5.0,77,0.00,,,0.00,Wunderground v.1.15,2013-11-28 15:20:00,
2013-11-28 09:30:00,37.1,30.2,30.42,NNE,15,1.0,5.0,76,0.00,,,0.00,Wunderground v.1.15,2013-11-28 15:30:00,
2013-11-28 09:40:00,38.5,30.3,30.43,East,92,3.0,5.0,72,0.00,,,0.00,Wunderground v.1.15,2013-11-28 15:40:00,
2013-11-28 09:50:00,38.9,30.3,30.43,ESE,111,4.0,4.0,71,0.00,,,0.00,Wunderground v.1.15,2013-11-28 15:50:00,
2013-11-28 10:00:00,39.8,31.5,30.43,ESE,122,3.0,5.0,72,0.00,,,0.00,Wunderground v.1.15,2013-11-28 16:00:00,
2013-11-28 10:10:00,41.4,32.0,30.43,SSE,164,5.0,6.0,69,0.00,,,0.00,Wunderground v.1.15,2013-11-28 16:10:00,
2013-11-28 10:20:00,43.1,31.7,30.42,SSE,165,4.0,7.0,64,0.00,,,0.00,Wunderground v.1.15,2013-11-28 16:20:00,
2013-11-28 10:30:00,44.7,30.0,30.42,SSE,160,5.0,5.0,56,0.00,,,0.00,Wunderground v.1.15,2013-11-28 16:30:00,
2013-11-28 10:40:00,45.4,30.2,30.42,SSE,163,5.0,5.0,55,0.00,,,0.00,Wunderground v.1.15,2013-11-28 16:40:00,
2013-11-28 10:50:00,46.0,29.3,30.42,SSE,163,6.0,6.0,52,0.00,,,0.00,Wunderground v.1.15,2013-11-28 16:50:00,
2013-11-28 11:00:00,46.7,29.5,30.42,SSE,155,6.0,7.0,51,0.00,,,0.00,Wunderground v.1.15,2013-11-28 17:00:00,
2013-11-28 11:10:00,47.3,31.0,30.42,SSE,159,5.0,5.0,53,0.00,,,0.00,Wunderground v.1.15,2013-11-28 17:10:00,
2013-11-28 11:20:00,48.1,31.3,30.41,SSE,163,6.0,6.0,52,0.00,,,0.00,Wunderground v.1.15,2013-11-28 17:20:00,
2013-11-28 11:30:00,48.9,32.5,30.40,SSE,165,5.0,6.0,53,0.00,,,0.00,Wunderground v.1.15,2013-11-28 17:30:00,
2013-11-28 11:40:00,49.7,31.8,30.40,SSE,166,5.0,5.0,50,0.00,,,0.00,Wunderground v.1.15,2013-11-28 17:40:00,
2013-11-28 11:50:00,50.7,30.7,30.39,SSE,168,5.0,5.0,46,0.00,,,0.00,Wunderground v.1.15,2013-11-28 17:50:00,
2013-11-28 12:00:00,51.1,31.0,30.39,SSE,167,5.0,5.0,46,0.00,,,0.00,Wunderground v.1.15,2013-11-28 18:00:00,
2013-11-28 12:10:00,51.2,31.6,30.38,SSE,159,6.0,6.0,47,0.00,,,0.00,Wunderground v.1.15,2013-11-28 18:10:00,
2013-11-28 12:20:00,51.8,31.7,30.38,SSE,165,5.0,5.0,46,0.00,,,0.00,Wunderground v.1.15,2013-11-28 18:20:00,
2013-11-28 12:30:00,52.4,31.7,30.37,SSE,166,3.0,3.0,45,0.00,,,0.00,Wunderground v.1.15,2013-11-28 18:30:00,
2013-11-28 12:40:00,52.8,32.0,30.37,South,171,4.0,8.0,45,0.00,,,0.00,Wunderground v.1.15,2013-11-28 18:40:00,
2013-11-28 12:50:00,53.3,31.4,30.36,South,172,3.0,5.0,43,0.00,,,0.00,Wunderground v.1.15,2013-11-28 18:50:00,
2013-11-28 13:00:00,53.8,32.4,30.35,SSE,163,7.0,8.0,44,0.00,,,0.00,Wunderground v.1.15,2013-11-28 19:00:00,
2013-11-28 13:10:00,53.9,31.3,30.34,South,175,5.0,5.0,42,0.00,,,0.00,Wunderground v.1.15,2013-11-28 19:10:00,
2013-11-28 13:20:00,54.2,32.2,30.34,SSE,165,6.0,6.0,43,0.00,,,0.00,Wunderground v.1.15,2013-11-28 19:20:00,
2013-11-28 13:30:00,54.6,30.7,30.34,South,175,3.0,5.0,40,0.00,,,0.00,Wunderground v.1.15,2013-11-28 19:30:00,
2013-11-28 13:40:00,55.3,31.4,30.33,South,169,3.0,5.0,40,0.00,,,0.00,Wunderground v.1.15,2013-11-28 19:40:00,
2013-11-28 13:50:00,55.2,30.7,30.33,South,175,4.0,4.0,39,0.00,,,0.00,Wunderground v.1.15,2013-11-28 19:50:00,
2013-11-28 14:00:00,55.3,30.7,30.32,South,171,5.0,5.0,39,0.00,,,0.00,Wunderground v.1.15,2013-11-28 20:00:00,
2013-11-28 14:10:00,55.9,31.3,30.32,South,176,5.0,9.0,39,0.00,,,0.00,Wunderground v.1.15,2013-11-28 20:10:00,
2013-11-28 14:20:00,55.8,29.9,30.32,South,171,5.0,5.0,37,0.00,,,0.00,Wunderground v.1.15,2013-11-28 20:20:00,
2013-11-28 14:30:00,55.9,31.3,30.32,SSE,165,6.0,11.0,39,0.00,,,0.00,Wunderground v.1.15,2013-11-28 20:30:00,
2013-11-28 14:40:00,56.3,31.0,30.32,South,171,6.0,13.0,38,0.00,,,0.00,Wunderground v.1.15,2013-11-28 20:40:00,
2013-11-28 14:50:00,56.7,30.0,30.31,South,179,5.0,6.0,36,0.00,,,0.00,Wunderground v.1.15,2013-11-28 20:50:00,
2013-11-28 15:00:00,56.8,30.1,30.32,SSE,164,7.0,7.0,36,0.00,,,0.00,Wunderground v.1.15,2013-11-28 21:00:00,
2013-11-28 15:10:00,56.3,31.6,30.32,SSE,163,2.0,5.0,39,0.00,,,0.00,Wunderground v.1.15,2013-11-28 21:10:00,
2013-11-28 15:20:00,56.4,31.1,30.32,South,173,6.0,6.0,38,0.00,,,0.00,Wunderground v.1.15,2013-11-28 21:20:00,
2013-11-28 15:30:00,56.1,31.5,30.32,SSE,161,4.0,5.0,39,0.00,,,0.00,Wunderground v.1.15,2013-11-28 21:30:00,
2013-11-28 15:40:00,56.3,30.3,30.33,SSE,167,5.0,5.0,37,0.00,,,0.00,Wunderground v.1.15,2013-11-28 21:40:00,
2013-11-28 15:50:00,56.0,30.7,30.33,South,174,5.0,5.0,38,0.00,,,0.00,Wunderground v.1.15,2013-11-28 21:50:00,
2013-11-28 16:00:00,55.9,30.6,30.33,South,170,6.0,6.0,38,0.00,,,0.00,Wunderground v.1.15,2013-11-28 22:00:00,
2013-11-28 16:10:00,55.7,30.5,30.33,SSE,164,6.0,8.0,38,0.00,,,0.00,Wunderground v.1.15,2013-11-28 22:10:00,
2013-11-28 16:20:00,55.4,30.2,30.33,SSE,150,6.0,9.0,38,0.00,,,0.00,Wunderground v.1.15,2013-11-28 22:20:00,
2013-11-28 16:30:00,55.2,30.7,30.33,SSE,156,7.0,7.0,39,0.00,,,0.00,Wunderground v.1.15,2013-11-28 22:30:00,
2013-11-28 16:40:00,54.8,30.3,30.33,SSE,160,6.0,7.0,39,0.00,,,0.00,Wunderground v.1.15,2013-11-28 22:40:00,
2013-11-28 16:50:00,54.6,30.1,30.33,SSE,153,7.0,8.0,39,0.00,,,0.00,Wunderground v.1.15,2013-11-28 22:50:00,
2013-11-28 17:00:00,54.3,30.5,30.34,SSE,152,6.0,6.0,40,0.00,,,0.00,Wunderground v.1.15,2013-11-28 23:00:00,
2013-11-28 17:10:00,53.4,30.9,30.34,SSE,152,4.0,6.0,42,0.00,,,0.00,Wunderground v.1.15,2013-11-28 23:10:00,
2013-11-28 17:20:00,52.5,31.2,30.34,SSE,152,4.0,5.0,44,0.00,,,0.00,Wunderground v.1.15,2013-11-28 23:20:00,
2013-11-28 17:30:00,51.7,31.0,30.34,SSE,152,4.0,4.0,45,0.00,,,0.00,Wunderground v.1.15,2013-11-28 23:30:00,
2013-11-28 17:40:00,50.8,30.7,30.35,SSE,152,2.0,2.0,46,0.00,,,0.00,Wunderground v.1.15,2013-11-28 23:40:00,
2013-11-28 17:50:00,50.0,30.5,30.35,SSE,152,1.0,1.0,47,0.00,,,0.00,Wunderground v.1.15,2013-11-28 23:50:00,
2013-11-28 18:00:00,49.2,30.3,30.35,SSE,152,0.0,5.0,48,0.00,,,0.00,Wunderground v.1.15,2013-11-29 00:00:00,
2013-11-28 18:10:00,48.3,30.0,30.35,SSE,152,0.0,5.0,49,0.00,,,0.00,Wunderground v.1.15,2013-11-29 00:10:00,
2013-11-28 18:20:00,47.4,29.7,30.36,SSE,152,0.0,5.0,50,0.00,,,0.00,Wunderground v.1.15,2013-11-29 00:20:00,
2013-11-28 18:30:00,46.8,30.1,30.36,SSE,152,0.0,5.0,52,0.00,,,0.00,Wunderground v.1.15,2013-11-29 00:30:00,
2013-11-28 18:40:00,46.5,29.8,30.36,SSE,152,1.0,5.0,52,0.00,,,0.00,Wunderground v.1.15,2013-11-29 00:40:00,
2013-11-28 18:50:00,46.1,29.9,30.37,SSE,152,1.0,5.0,53,0.00,,,0.00,Wunderground v.1.15,2013-11-29 00:50:00,
2013-11-28 19:00:00,45.6,29.9,30.37,SSE,152,1.0,1.0,54,0.00,,,0.00,Wunderground v.1.15,2013-11-29 01:00:00,
2013-11-28 19:10:00,45.1,29.9,30.37,SSE,152,1.0,1.0,55,0.00,,,0.00,Wunderground v.1.15,2013-11-29 01:10:00,
2013-11-28 19:20:00,44.6,29.9,30.37,SSE,152,0.0,5.0,56,0.00,,,0.00,Wunderground v.1.15,2013-11-29 01:20:00,
2013-11-28 19:30:00,44.0,29.7,30.38,SSE,152,0.0,5.0,57,0.00,,,0.00,Wunderground v.1.15,2013-11-29 01:30:00,
2013-11-28 19:40:00,43.8,29.1,30.38,SSE,152,1.0,5.0,56,0.00,,,0.00,Wunderground v.1.15,2013-11-29 01:40:00,
2013-11-28 19:50:00,43.7,29.5,30.39,SSE,152,1.0,5.0,57,0.00,,,0.00,Wunderground v.1.15,2013-11-29 01:50:00,
2013-11-28 20:00:00,43.4,29.2,30.40,SSE,152,0.0,5.0,57,0.00,,,0.00,Wunderground v.1.15,2013-11-29 02:00:00,
2013-11-28 20:10:00,43.1,29.3,30.40,SSE,152,1.0,1.0,58,0.00,,,0.00,Wunderground v.1.15,2013-11-29 02:10:00,
2013-11-28 20:20:00,42.6,29.3,30.40,SSE,152,0.0,5.0,59,0.00,,,0.00,Wunderground v.1.15,2013-11-29 02:20:00,
2013-11-28 20:30:00,42.1,29.2,30.40,SSE,152,0.0,5.0,60,0.00,,,0.00,Wunderground v.1.15,2013-11-29 02:30:00,
2013-11-28 20:40:00,41.6,29.1,30.40,SSE,152,0.0,5.0,61,0.00,,,0.00,Wunderground v.1.15,2013-11-29 02:40:00,
2013-11-28 20:50:00,41.6,29.9,30.40,SSE,152,1.0,5.0,63,0.00,,,0.00,Wunderground v.1.15,2013-11-29 02:50:00,
2013-11-28 21:00:00,41.3,30.0,30.41,SSE,152,2.0,2.0,64,0.00,,,0.00,Wunderground v.1.15,2013-11-29 03:00:00,
2013-11-28 21:10:00,41.0,30.1,30.41,SSE,152,0.0,5.0,65,0.00,,,0.00,Wunderground v.1.15,2013-11-29 03:10:00,
2013-11-28 21:20:00,40.4,29.6,30.41,SSE,152,0.0,5.0,65,0.00,,,0.00,Wunderground v.1.15,2013-11-29 03:20:00,
2013-11-28 21:30:00,40.0,29.6,30.42,SSE,152,0.0,5.0,66,0.00,,,0.00,Wunderground v.1.15,2013-11-29 03:30:00,
2013-11-28 21:40:00,39.6,29.5,30.42,SSE,152,0.0,5.0,67,0.00,,,0.00,Wunderground v.1.15,2013-11-29 03:40:00,
2013-11-28 21:50:00,39.4,29.3,30.41,SSE,152,0.0,5.0,67,0.00,,,0.00,Wunderground v.1.15,2013-11-29 03:50:00,
2013-11-28 22:00:00,38.8,29.1,30.42,SSE,152,0.0,5.0,68,0.00,,,0.00,Wunderground v.1.15,2013-11-29 04:00:00,
2013-11-28 22:10:00,38.3,29.0,30.42,SSE,152,0.0,5.0,69,0.00,,,0.00,Wunderground v.1.15,2013-11-29 04:10:00,
2013-11-28 22:20:00,38.1,29.2,30.42,SSE,152,0.0,5.0,70,0.00,,,0.00,Wunderground v.1.15,2013-11-29 04:20:00,
2013-11-28 22:30:00,37.8,29.2,30.42,SSE,152,0.0,5.0,71,0.00,,,0.00,Wunderground v.1.15,2013-11-29 04:30:00,
2013-11-28 22:40:00,37.5,28.9,30.42,SSE,152,0.0,5.0,71,0.00,,,0.00,Wunderground v.1.15,2013-11-29 04:40:00,
2013-11-28 22:50:00,37.2,29.0,30.42,SSE,152,0.0,5.0,72,0.00,,,0.00,Wunderground v.1.15,2013-11-29 04:50:00,
2013-11-28 23:00:00,36.9,28.7,30.42,SSE,152,0.0,5.0,72,0.00,,,0.00,Wunderground v.1.15,2013-11-29 05:00:00,
2013-11-28 23:10:00,36.6,28.4,30.42,SSE,152,0.0,5.0,72,0.00,,,0.00,Wunderground v.1.15,2013-11-29 05:10:00,
2013-11-28 23:20:00,36.4,28.6,30.42,SSE,152,0.0,5.0,73,0.00,,,0.00,Wunderground v.1.15,2013-11-29 05:20:00,
2013-11-28 23:30:00,36.3,28.5,30.42,SSE,152,0.0,5.0,73,0.00,,,0.00,Wunderground v.1.15,2013-11-29 05:30:00,
2013-11-28 23:40:00,36.1,28.3,30.42,SSE,152,0.0,5.0,73,0.00,,,0.00,Wunderground v.1.15,2013-11-29 05:40:00,
2013-11-28 23:50:00,35.7,28.2,30.42,SSE,152,0.0,5.0,74,0.00,,,0.00,Wunderground v.1.15,2013-11-29 05:50:00,